Time,TemperatureF,DewpointF,PressureIn,WindDirection,WindDirectionDegrees,WindSpeedMPH,WindSpeedGustMPH,Humidity,HourlyPrecipIn,Conditions,Clouds,dailyrainin,SoftwareType,DateUTC
2013-03-10 00:00:00,41.5,30.2,30.24,SSE,149,1.0,2.0,64,0.00,,---,0.00,VWS V14.01,2013-03-10 08:00:00,
2013-03-10 00:05:00,41.3,30.1,30.24,SSE,162,1.0,2.0,64,0.00,,---,0.00,VWS V14.01,2013-03-10 08:05:00,
2013-03-10 00:10:00,40.8,30.0,30.25,WNW,290,4.0,4.0,65,0.00,,---,0.00,VWS V14.01,2013-03-10 08:10:00,
2013-03-10 00:15:00,39.6,30.3,30.25,WSW,240,1.0,4.0,69,0.00,,---,0.00,VWS V14.01,2013-03-10 08:15:00,
2013-03-10 00:20:00,39.2,30.2,30.25,SW,224,0.0,4.0,70,0.00,,---,0.00,VWS V14.01,2013-03-10 08:20:00,
2013-03-10 00:25:00,38.7,29.8,30.26,West,267,1.0,4.0,70,0.00,,---,0.00,VWS V14.01,2013-03-10 08:25:00,
2013-03-10 00:30:00,37.9,29.7,30.26,West,259,1.0,4.0,72,0.00,,---,0.00,VWS V14.01,2013-03-10 08:30:00,
2013-03-10 00:35:00,37.3,29.5,30.26,WSW,248,0.0,4.0,73,0.00,,---,0.00,VWS V14.01,2013-03-10 08:35:00,
2013-03-10 00:40:00,37.0,29.5,30.26,SW,234,1.0,4.0,74,0.00,,---,0.00,VWS V14.01,2013-03-10 08:40:00,
2013-03-10 00:45:00,37.0,29.8,30.27,SW,229,2.0,4.0,75,0.00,,---,0.00,VWS V14.01,2013-03-10 08:45:00,
2013-03-10 00:50:00,37.2,29.7,30.27,SW,233,2.0,4.0,74,0.00,,---,0.00,VWS V14.01,2013-03-10 08:50:00,
2013-03-10 00:55:00,37.4,29.5,30.27,SW,229,1.0,4.0,73,0.00,,---,0.00,VWS V14.01,2013-03-10 08:55:00,
2013-03-10 00:59:00,36.7,28.9,30.27,West,277,2.0,2.0,73,0.00,,---,0.00,VWS V14.01,2013-03-10 08:59:00,
2013-03-10 01:00:00,37.4,29.5,30.27,SW,226,1.0,1.0,73,0.00,,---,0.00,VWS V14.01,2013-03-10 09:00:00,
2013-03-10 01:05:00,37.4,29.5,30.27,SSW,212,1.0,2.0,73,0.00,,---,0.00,VWS V14.01,2013-03-10 09:05:00,
2013-03-10 01:10:00,37.2,29.4,30.27,SSW,213,0.0,2.0,73,0.00,,---,0.00,VWS V14.01,2013-03-10 09:10:00,
2013-03-10 01:15:00,37.2,29.4,30.27,SW,222,1.0,2.0,73,0.00,,---,0.00,VWS V14.01,2013-03-10 09:15:00,
2013-03-10 01:20:00,37.5,29.6,30.27,SW,222,0.0,2.0,73,0.00,,---,0.00,VWS V14.01,2013-03-10 09:20:00,
2013-03-10 01:25:00,37.7,29.5,30.27,SW,222,0.0,2.0,72,0.00,,---,0.00,VWS V14.01,2013-03-10 09:25:00,
2013-03-10 01:30:00,38.1,29.5,30.27,WSW,249,1.0,2.0,71,0.00,,---,0.00,VWS V14.01,2013-03-10 09:30:00,
2013-03-10 01:35:00,38.2,29.3,30.28,WSW,256,1.0,2.0,70,0.00,,---,0.00,VWS V14.01,2013-03-10 09:35:00,
2013-03-10 01:40:00,38.0,29.5,30.28,WNW,297,2.0,2.0,71,0.00,,---,0.00,VWS V14.01,2013-03-10 09:40:00,
2013-03-10 01:45:00,37.6,29.4,30.28,WNW,284,0.0,2.0,72,0.00,,---,0.00,VWS V14.01,2013-03-10 09:45:00,
2013-03-10 01:50:00,37.3,29.1,30.28,West,271,0.0,2.0,72,0.00,,---,0.00,VWS V14.01,2013-03-10 09:50:00,
2013-03-10 01:55:00,36.9,29.1,30.27,West,269,1.0,2.0,73,0.00,,---,0.00,VWS V14.01,2013-03-10 09:55:00,
2013-03-10 03:00:00,36.6,28.8,30.27,West,280,2.0,2.0,73,0.00,,---,0.00,VWS V14.01,2013-03-10 10:00:00,
2013-03-10 03:05:00,36.2,28.7,30.28,WNW,285,0.0,2.0,74,0.00,,---,0.00,VWS V14.01,2013-03-10 10:05:00,
2013-03-10 03:10:00,36.3,28.8,30.27,WNW,283,0.0,2.0,74,0.00,,---,0.00,VWS V14.01,2013-03-10 10:10:00,
2013-03-10 03:15:00,36.6,28.8,30.28,West,274,0.0,2.0,73,0.00,,---,0.00,VWS V14.01,2013-03-10 10:15:00,
2013-03-10 03:20:00,37.0,28.8,30.28,WNW,283,3.0,3.0,72,0.00,,---,0.00,VWS V14.01,2013-03-10 10:20:00,
2013-03-10 03:25:00,37.3,28.8,30.27,West,276,0.0,3.0,71,0.00,,---,0.00,VWS V14.01,2013-03-10 10:25:00,
2013-03-10 03:30:00,37.6,28.7,30.27,West,274,1.0,3.0,70,0.00,,---,0.00,VWS V14.01,2013-03-10 10:30:00,
2013-03-10 03:35:00,37.6,28.7,30.27,SW,229,0.0,3.0,70,0.00,,---,0.00,VWS V14.01,2013-03-10 10:35:00,
2013-03-10 03:40:00,37.0,28.5,30.27,SE,139,1.0,3.0,71,0.00,,---,0.00,VWS V14.01,2013-03-10 10:40:00,
2013-03-10 03:45:00,36.7,28.5,30.28,SE,140,0.0,3.0,72,0.00,,---,0.00,VWS V14.01,2013-03-10 10:45:00,
2013-03-10 03:50:00,36.6,28.8,30.28,ESE,109,2.0,3.0,73,0.00,,---,0.00,VWS V14.01,2013-03-10 10:50:00,
2013-03-10 03:55:00,36.4,28.6,30.28,SE,127,1.0,3.0,73,0.00,,---,0.00,VWS V14.01,2013-03-10 10:55:00,
2013-03-10 04:00:00,36.6,28.4,30.28,SE,128,2.0,2.0,72,0.00,,---,0.00,VWS V14.01,2013-03-10 11:00:00,
2013-03-10 04:05:00,36.7,28.5,30.28,SE,131,3.0,3.0,72,0.00,,---,0.00,VWS V14.01,2013-03-10 11:05:00,
2013-03-10 04:10:00,37.0,28.8,30.28,SE,135,3.0,3.0,72,0.00,,---,0.00,VWS V14.01,2013-03-10 11:10:00,
2013-03-10 04:15:00,37.1,28.9,30.28,SE,145,2.0,3.0,72,0.00,,---,0.00,VWS V14.01,2013-03-10 11:15:00,
2013-03-10 04:20:00,37.2,28.7,30.27,SE,139,2.0,3.0,71,0.00,,---,0.00,VWS V14.01,2013-03-10 11:20:00,
2013-03-10 04:25:00,37.3,28.8,30.28,SE,127,2.0,3.0,71,0.00,,---,0.00,VWS V14.01,2013-03-10 11:25:00,
2013-03-10 04:30:00,37.5,29.0,30.28,SE,131,2.0,3.0,71,0.00,,---,0.00,VWS V14.01,2013-03-10 11:30:00,
2013-03-10 04:35:00,37.9,29.0,30.28,SE,135,2.0,3.0,70,0.00,,---,0.00,VWS V14.01,2013-03-10 11:35:00,
2013-03-10 04:40:00,38.3,29.0,30.28,SE,142,1.0,3.0,69,0.00,,---,0.00,VWS V14.01,2013-03-10 11:40:00,
2013-03-10 04:45:00,38.4,29.1,30.28,SSE,150,2.0,3.0,69,0.00,,---,0.00,VWS V14.01,2013-03-10 11:45:00,
2013-03-10 04:50:00,38.5,29.2,30.28,SSE,150,3.0,3.0,69,0.00,,---,0.00,VWS V14.01,2013-03-10 11:50:00,
2013-03-10 04:55:00,38.7,29.1,30.28,ESE,115,2.0,4.0,68,0.00,,---,0.00,VWS V14.01,2013-03-10 11:55:00,
2013-03-10 05:00:00,38.7,29.1,30.28,ESE,120,2.0,2.0,68,0.00,,---,0.00,VWS V14.01,2013-03-10 12:00:00,
2013-03-10 05:05:00,38.6,29.0,30.28,ESE,119,0.0,2.0,68,0.00,,---,0.00,VWS V14.01,2013-03-10 12:05:00,
2013-03-10 05:10:00,38.3,28.7,30.28,ESE,118,0.0,2.0,68,0.00,,---,0.00,VWS V14.01,2013-03-10 12:10:00,
2013-03-10 05:15:00,38.0,28.8,30.28,SW,215,2.0,3.0,69,0.00,,---,0.00,VWS V14.01,2013-03-10 12:15:00,
2013-03-10 05:21:00,37.1,28.6,30.28,WSW,253,1.0,3.0,71,0.00,,---,0.00,VWS V14.01,2013-03-10 12:21:00,
2013-03-10 05:26:00,36.2,28.1,30.29,WSW,253,0.0,3.0,72,0.00,,---,0.00,VWS V14.01,2013-03-10 12:26:00,
2013-03-10 05:31:00,35.4,28.0,30.29,WSW,253,0.0,3.0,74,0.00,,---,0.00,VWS V14.01,2013-03-10 12:31:00,
2013-03-10 05:36:00,34.8,27.7,30.29,WSW,253,0.0,3.0,75,0.00,,---,0.00,VWS V14.01,2013-03-10 12:36:00,
2013-03-10 05:41:00,34.1,27.0,30.29,WSW,253,0.0,3.0,75,0.00,,---,0.00,VWS V14.01,2013-03-10 12:41:00,
2013-03-10 05:46:00,33.5,27.1,30.30,WSW,253,0.0,3.0,77,0.00,,---,0.00,VWS V14.01,2013-03-10 12:46:00,
2013-03-10 05:51:00,33.0,27.2,30.30,WSW,254,0.0,3.0,79,0.00,,---,0.00,VWS V14.01,2013-03-10 12:51:00,
2013-03-10 05:56:00,32.7,26.9,30.30,WSW,240,2.0,3.0,79,0.00,,---,0.00,VWS V14.01,2013-03-10 12:56:00,
2013-03-10 06:01:00,32.4,26.9,30.30,SW,235,0.0,1.0,80,0.00,,---,0.00,VWS V14.01,2013-03-10 13:01:00,
2013-03-10 06:06:00,32.3,26.8,30.30,SW,235,0.0,1.0,80,0.00,,---,0.00,VWS V14.01,2013-03-10 13:06:00,
2013-03-10 06:11:00,32.5,27.3,30.30,SW,235,0.0,1.0,81,0.00,,---,0.00,VWS V14.01,2013-03-10 13:11:00,
2013-03-10 06:16:00,32.7,27.5,30.30,SW,236,0.0,1.0,81,0.00,,---,0.00,VWS V14.01,2013-03-10 13:16:00,
2013-03-10 06:21:00,33.2,27.7,30.30,West,271,2.0,2.0,80,0.00,,---,0.00,VWS V14.01,2013-03-10 13:21:00,
2013-03-10 06:26:00,33.3,27.5,30.31,West,260,0.0,2.0,79,0.00,,---,0.00,VWS V14.01,2013-03-10 13:26:00,
2013-03-10 06:31:00,33.1,27.3,30.31,West,260,0.0,2.0,79,0.00,,---,0.00,VWS V14.01,2013-03-10 13:31:00,
2013-03-10 06:36:00,33.3,27.5,30.31,West,260,0.0,2.0,79,0.00,,---,0.00,VWS V14.01,2013-03-10 13:36:00,
2013-03-10 06:41:00,33.3,27.5,30.31,West,260,0.0,2.0,79,0.00,,---,0.00,VWS V14.01,2013-03-10 13:41:00,
2013-03-10 06:46:00,33.4,27.6,30.31,WSW,250,0.0,2.0,79,0.00,,---,0.00,VWS V14.01,2013-03-10 13:46:00,
2013-03-10 06:51:00,33.5,27.4,30.31,West,260,1.0,2.0,78,0.00,,---,0.00,VWS V14.01,2013-03-10 13:51:00,
2013-03-10 06:56:00,33.7,27.6,30.31,West,281,0.0,2.0,78,0.00,,---,0.00,VWS V14.01,2013-03-10 13:56:00,
2013-03-10 07:01:00,34.3,27.9,30.32,West,274,1.0,2.0,77,0.00,,---,0.00,VWS V14.01,2013-03-10 14:01:00,
2013-03-10 07:06:00,34.9,28.1,30.32,WNW,283,1.0,3.0,76,0.00,,---,0.00,VWS V14.01,2013-03-10 14:06:00,
2013-03-10 07:11:00,34.3,27.5,30.33,WSW,240,1.0,3.0,76,0.00,,---,0.00,VWS V14.01,2013-03-10 14:11:00,
2013-03-10 07:16:00,34.6,27.8,30.33,WSW,243,0.0,3.0,76,0.00,,---,0.00,VWS V14.01,2013-03-10 14:16:00,
2013-03-10 07:21:00,34.5,27.4,30.33,SW,228,1.0,3.0,75,0.00,,---,0.00,VWS V14.01,2013-03-10 14:21:00,
2013-03-10 07:26:00,34.6,27.8,30.33,WSW,246,0.0,3.0,76,0.00,,---,0.00,VWS V14.01,2013-03-10 14:26:00,
2013-03-10 07:31:00,35.0,28.2,30.34,SW,234,1.0,3.0,76,0.00,,---,0.00,VWS V14.01,2013-03-10 14:31:00,
2013-03-10 07:36:00,35.6,28.5,30.34,SW,234,0.0,3.0,75,0.00,,---,0.00,VWS V14.01,2013-03-10 14:36:00,
2013-03-10 07:41:00,36.7,28.9,30.34,SSE,155,0.0,3.0,73,0.00,,---,0.00,VWS V14.01,2013-03-10 14:41:00,
2013-03-10 07:46:00,37.1,28.6,30.34,SE,133,1.0,3.0,71,0.00,,---,0.00,VWS V14.01,2013-03-10 14:46:00,
2013-03-10 07:51:00,37.4,28.9,30.34,ESE,122,1.0,3.0,71,0.00,,---,0.00,VWS V14.01,2013-03-10 14:51:00,
2013-03-10 07:56:00,37.7,29.5,30.34,ESE,106,0.0,3.0,72,0.00,,---,0.00,VWS V14.01,2013-03-10 14:56:00,
2013-03-10 08:01:00,38.9,30.0,30.34,SE,132,1.0,1.0,70,0.00,,---,0.00,VWS V14.01,2013-03-10 15:01:00,
2013-03-10 08:06:00,39.4,29.7,30.34,ESE,115,1.0,2.0,68,0.00,,---,0.00,VWS V14.01,2013-03-10 15:06:00,
2013-03-10 08:11:00,39.4,30.4,30.34,ESE,111,1.0,2.0,70,0.00,,---,0.00,VWS V14.01,2013-03-10 15:11:00,
2013-03-10 08:16:00,39.9,30.9,30.35,ESE,113,1.0,2.0,70,0.00,,---,0.00,VWS V14.01,2013-03-10 15:16:00,
2013-03-10 08:21:00,40.3,31.0,30.35,ESE,103,1.0,2.0,69,0.00,,---,0.00,VWS V14.01,2013-03-10 15:21:00,
2013-03-10 08:26:00,40.8,31.1,30.35,ESE,110,2.0,2.0,68,0.00,,---,0.00,VWS V14.01,2013-03-10 15:26:00,
2013-03-10 08:31:00,41.3,31.2,30.35,ESE,120,2.0,3.0,67,0.00,,---,0.00,VWS V14.01,2013-03-10 15:31:00,
2013-03-10 08:36:00,41.8,31.7,30.35,ESE,115,1.0,3.0,67,0.00,,---,0.00,VWS V14.01,2013-03-10 15:36:00,
2013-03-10 08:41:00,42.4,31.9,30.35,ESE,122,3.0,4.0,66,0.00,,---,0.00,VWS V14.01,2013-03-10 15:41:00,
2013-03-10 08:46:00,42.9,32.0,30.35,ESE,117,2.0,4.0,65,0.00,,---,0.00,VWS V14.01,2013-03-10 15:46:00,
2013-03-10 08:51:00,43.3,31.6,30.35,SE,129,2.0,4.0,63,0.00,,---,0.00,VWS V14.01,2013-03-10 15:51:00,
2013-03-10 08:56:00,43.9,31.7,30.35,ENE,58,1.0,4.0,62,0.00,,---,0.00,VWS V14.01,2013-03-10 15:56:00,
2013-03-10 09:01:00,44.3,32.1,30.35,East,94,2.0,2.0,62,0.00,,---,0.00,VWS V14.01,2013-03-10 16:01:00,
2013-03-10 09:06:00,45.0,32.8,30.36,East,91,2.0,2.0,62,0.00,,---,0.00,VWS V14.01,2013-03-10 16:06:00,
2013-03-10 09:11:00,45.7,32.2,30.35,East,93,2.0,3.0,59,0.00,,---,0.00,VWS V14.01,2013-03-10 16:11:00,
2013-03-10 09:17:00,46.2,32.7,30.35,ESE,115,4.0,4.0,59,0.00,,---,0.00,VWS V14.01,2013-03-10 16:17:00,
2013-03-10 09:22:00,46.6,31.8,30.35,ESE,120,2.0,5.0,56,0.00,,---,0.00,VWS V14.01,2013-03-10 16:22:00,
2013-03-10 09:27:00,47.0,31.2,30.36,ESE,108,2.0,5.0,54,0.00,,---,0.00,VWS V14.01,2013-03-10 16:27:00,
2013-03-10 09:32:00,47.6,31.3,30.36,ESE,117,0.0,5.0,53,0.00,,---,0.00,VWS V14.01,2013-03-10 16:32:00,
2013-03-10 09:37:00,47.8,29.1,30.36,East,89,0.0,5.0,48,0.00,,---,0.00,VWS V14.01,2013-03-10 16:37:00,
2013-03-10 09:42:00,48.8,30.5,30.36,ESE,120,0.0,5.0,49,0.00,,---,0.00,VWS V14.01,2013-03-10 16:42:00,
2013-03-10 09:47:00,49.9,30.5,30.36,SE,131,0.0,5.0,47,0.00,,---,0.00,VWS V14.01,2013-03-10 16:47:00,
2013-03-10 09:52:00,50.6,31.1,30.36,South,188,1.0,5.0,47,0.00,,---,0.00,VWS V14.01,2013-03-10 16:52:00,
2013-03-10 09:57:00,52.0,30.8,30.36,ENE,70,1.0,5.0,44,0.00,,---,0.00,VWS V14.01,2013-03-10 16:57:00,
2013-03-10 10:02:00,51.7,30.5,30.36,ENE,77,0.0,0.0,44,0.00,,---,0.00,VWS V14.01,2013-03-10 17:02:00,
2013-03-10 10:07:00,51.3,29.6,30.36,ENE,77,2.0,2.0,43,0.00,,---,0.00,VWS V14.01,2013-03-10 17:07:00,
2013-03-10 10:12:00,51.6,29.3,30.36,East,86,2.0,5.0,42,0.00,,---,0.00,VWS V14.01,2013-03-10 17:12:00,
2013-03-10 10:17:00,51.5,29.2,30.36,ESE,122,2.0,5.0,42,0.00,,---,0.00,VWS V14.01,2013-03-10 17:17:00,
2013-03-10 10:22:00,51.3,29.6,30.36,ENE,63,5.0,6.0,43,0.00,,---,0.00,VWS V14.01,2013-03-10 17:22:00,
2013-03-10 10:27:00,51.7,28.8,30.36,ENE,73,5.0,6.0,41,0.00,,---,0.00,VWS V14.01,2013-03-10 17:27:00,
2013-03-10 10:32:00,52.0,29.0,30.36,NNE,20,2.0,6.0,41,0.00,,---,0.00,VWS V14.01,2013-03-10 17:32:00,
2013-03-10 10:37:00,52.3,28.7,30.36,North,3,4.0,6.0,40,0.00,,---,0.00,VWS V14.01,2013-03-10 17:37:00,
2013-03-10 10:42:00,52.6,28.4,30.36,North,355,4.0,6.0,39,0.00,,---,0.00,VWS V14.01,2013-03-10 17:42:00,
2013-03-10 10:47:00,53.2,28.3,30.35,NE,53,4.0,6.0,38,0.00,,---,0.00,VWS V14.01,2013-03-10 17:47:00,
2013-03-10 10:52:00,53.3,26.4,30.35,ENE,65,6.0,12.0,35,0.00,,---,0.00,VWS V14.01,2013-03-10 17:52:00,
2013-03-10 10:57:00,53.9,28.2,30.35,NE,36,1.0,12.0,37,0.00,,---,0.00,VWS V14.01,2013-03-10 17:57:00,
2013-03-10 11:02:00,54.3,27.9,30.35,NE,52,7.0,12.0,36,0.00,,---,0.00,VWS V14.01,2013-03-10 18:02:00,
2013-03-10 11:07:00,54.9,24.1,30.35,East,83,4.0,12.0,30,0.00,,---,0.00,VWS V14.01,2013-03-10 18:07:00,
2013-03-10 11:12:00,55.2,24.3,30.34,East,91,6.0,12.0,30,0.00,,---,0.00,VWS V14.01,2013-03-10 18:12:00,
2013-03-10 11:17:00,55.5,24.6,30.34,NE,49,7.0,12.0,30,0.00,,---,0.00,VWS V14.01,2013-03-10 18:17:00,
2013-03-10 11:22:00,55.8,22.3,30.34,ENE,75,12.0,12.0,27,0.00,,---,0.00,VWS V14.01,2013-03-10 18:22:00,
2013-03-10 11:27:00,56.5,22.9,30.35,NE,44,8.0,12.0,27,0.00,,---,0.00,VWS V14.01,2013-03-10 18:27:00,
2013-03-10 11:32:00,56.4,23.7,30.34,NE,39,9.0,12.0,28,0.00,,---,0.00,VWS V14.01,2013-03-10 18:32:00,
2013-03-10 11:37:00,56.9,23.3,30.34,NNE,26,10.0,12.0,27,0.00,,---,0.00,VWS V14.01,2013-03-10 18:37:00,
2013-03-10 11:42:00,57.0,23.4,30.33,NE,51,9.0,12.0,27,0.00,,---,0.00,VWS V14.01,2013-03-10 18:42:00,
2013-03-10 11:47:00,57.3,21.8,30.33,NE,41,10.0,15.0,25,0.00,,---,0.00,VWS V14.01,2013-03-10 18:47:00,
2013-03-10 11:52:00,57.5,20.0,30.33,ENE,61,5.0,17.0,23,0.00,,---,0.00,VWS V14.01,2013-03-10 18:52:00,
2013-03-10 11:57:00,57.9,20.4,30.33,ENE,60,12.0,17.0,23,0.00,,---,0.00,VWS V14.01,2013-03-10 18:57:00,
2013-03-10 12:02:00,58.4,20.8,30.32,NNE,30,5.0,14.0,23,0.00,,---,0.00,VWS V14.01,2013-03-10 19:02:00,
2013-03-10 12:07:00,58.7,20.0,30.32,ENE,63,6.0,16.0,22,0.00,,---,0.00,VWS V14.01,2013-03-10 19:07:00,
2013-03-10 12:12:00,59.2,19.3,30.32,ENE,78,10.0,16.0,21,0.00,,---,0.00,VWS V14.01,2013-03-10 19:12:00,
2013-03-10 12:17:00,59.5,20.6,30.32,ENE,69,7.0,16.0,22,0.00,,---,0.00,VWS V14.01,2013-03-10 19:17:00,
2013-03-10 12:22:00,60.0,20.0,30.32,NE,49,9.0,16.0,21,0.00,,---,0.00,VWS V14.01,2013-03-10 19:22:00,
2013-03-10 12:27:00,60.1,18.9,30.32,NE,40,10.0,19.0,20,0.00,,---,0.00,VWS V14.01,2013-03-10 19:27:00,
2013-03-10 12:32:00,60.0,18.8,30.32,ENE,74,3.0,19.0,20,0.00,,---,0.00,VWS V14.01,2013-03-10 19:32:00,
2013-03-10 12:37:00,60.8,19.5,30.31,NNE,28,9.0,19.0,20,0.00,,---,0.00,VWS V14.01,2013-03-10 19:37:00,
2013-03-10 12:42:00,60.8,19.5,30.31,NE,44,9.0,19.0,20,0.00,,---,0.00,VWS V14.01,2013-03-10 19:42:00,
2013-03-10 12:47:00,60.8,20.6,30.31,NE,49,8.0,19.0,21,0.00,,---,0.00,VWS V14.01,2013-03-10 19:47:00,
2013-03-10 12:53:00,61.6,19.0,30.31,NNE,24,4.0,19.0,19,0.00,,---,0.00,VWS V14.01,2013-03-10 19:53:00,
2013-03-10 12:58:00,61.7,19.0,30.31,North,358,9.0,19.0,19,0.00,,---,0.00,VWS V14.01,2013-03-10 19:58:00,
2013-03-10 13:03:00,61.4,18.8,30.30,ENE,63,9.0,12.0,19,0.00,,---,0.00,VWS V14.01,2013-03-10 20:03:00,
2013-03-10 13:08:00,61.5,20.1,30.30,NNE,28,12.0,12.0,20,0.00,,---,0.00,VWS V14.01,2013-03-10 20:08:00,
2013-03-10 13:13:00,61.6,19.0,30.30,NNE,15,5.0,13.0,19,0.00,,---,0.00,VWS V14.01,2013-03-10 20:13:00,
2013-03-10 13:18:00,61.8,19.1,30.29,NNW,335,9.0,15.0,19,0.00,,---,0.00,VWS V14.01,2013-03-10 20:18:00,
2013-03-10 13:24:00,62.4,19.6,30.29,NNE,15,13.0,15.0,19,0.00,,---,0.00,VWS V14.01,2013-03-10 20:24:00,
2013-03-10 13:29:00,62.1,19.4,30.29,NE,54,4.0,15.0,19,0.00,,---,0.00,VWS V14.01,2013-03-10 20:29:00,
2013-03-10 13:34:00,62.2,18.2,30.28,NE,42,9.0,15.0,18,0.00,,---,0.00,VWS V14.01,2013-03-10 20:34:00,
2013-03-10 13:39:00,62.6,19.8,30.28,NNE,18,6.0,15.0,19,0.00,,---,0.00,VWS V14.01,2013-03-10 20:39:00,
2013-03-10 13:44:00,62.7,18.6,30.28,North,355,10.0,15.0,18,0.00,,---,0.00,VWS V14.01,2013-03-10 20:44:00,
2013-03-10 13:49:00,62.5,18.5,30.27,North,351,12.0,15.0,18,0.00,,---,0.00,VWS V14.01,2013-03-10 20:49:00,
2013-03-10 13:54:00,62.9,18.8,30.27,NNE,24,10.0,17.0,18,0.00,,---,0.00,VWS V14.01,2013-03-10 20:54:00,
2013-03-10 13:59:00,62.3,18.3,30.27,NE,39,0.0,0.0,18,0.00,,---,0.00,VWS V14.01,2013-03-10 20:59:00,
2013-03-10 14:04:00,62.8,20.0,30.27,NE,36,12.0,13.0,19,0.00,,---,0.00,VWS V14.01,2013-03-10 21:04:00,
2013-03-10 14:10:00,62.6,19.8,30.27,NE,37,7.0,14.0,19,0.00,,---,0.00,VWS V14.01,2013-03-10 21:10:00,
2013-03-10 14:15:00,62.7,19.9,30.26,East,98,4.0,14.0,19,0.00,,---,0.00,VWS V14.01,2013-03-10 21:15:00,
2013-03-10 14:20:00,62.8,20.0,30.26,NNE,33,5.0,14.0,19,0.00,,---,0.00,VWS V14.01,2013-03-10 21:20:00,
2013-03-10 14:25:00,63.1,20.2,30.26,NE,35,6.0,15.0,19,0.00,,---,0.00,VWS V14.01,2013-03-10 21:25:00,
2013-03-10 14:30:00,62.9,18.8,30.26,North,5,2.0,15.0,18,0.00,,---,0.00,VWS V14.01,2013-03-10 21:30:00,
2013-03-10 14:35:00,63.1,18.9,30.25,North,360,9.0,15.0,18,0.00,,---,0.00,VWS V14.01,2013-03-10 21:35:00,
2013-03-10 14:40:00,63.5,19.3,30.25,NE,35,8.0,15.0,18,0.00,,---,0.00,VWS V14.01,2013-03-10 21:40:00,
2013-03-10 14:45:00,63.9,19.6,30.25,NW,325,10.0,15.0,18,0.00,,---,0.00,VWS V14.01,2013-03-10 21:45:00,
2013-03-10 14:50:00,64.1,18.4,30.25,North,354,8.0,15.0,17,0.00,,---,0.00,VWS V14.01,2013-03-10 21:50:00,
2013-03-10 14:55:00,64.2,18.5,30.24,NE,51,10.0,15.0,17,0.00,,---,0.00,VWS V14.01,2013-03-10 21:55:00,
2013-03-10 15:00:00,64.1,19.8,30.24,NNE,26,8.0,8.0,18,0.00,,---,0.00,VWS V14.01,2013-03-10 22:00:00,
2013-03-10 15:05:00,64.6,18.8,30.24,NE,36,15.0,15.0,17,0.00,,---,0.00,VWS V14.01,2013-03-10 22:05:00,
2013-03-10 15:11:00,64.4,18.7,30.24,ENE,74,9.0,15.0,17,0.00,,---,0.00,VWS V14.01,2013-03-10 22:11:00,
2013-03-10 15:17:00,64.7,18.9,30.23,NNE,33,2.0,15.0,17,0.00,,---,0.00,VWS V14.01,2013-03-10 22:17:00,
2013-03-10 15:22:00,65.4,18.1,30.23,NE,36,5.0,15.0,16,0.00,,---,0.00,VWS V14.01,2013-03-10 22:22:00,
2013-03-10 15:27:00,65.0,17.8,30.23,NNE,16,10.0,15.0,16,0.00,,---,0.00,VWS V14.01,2013-03-10 22:27:00,
2013-03-10 15:32:00,64.9,17.7,30.23,ENE,69,6.0,15.0,16,0.00,,---,0.00,VWS V14.01,2013-03-10 22:32:00,
2013-03-10 15:37:00,65.1,17.8,30.23,North,354,3.0,15.0,16,0.00,,---,0.00,VWS V14.01,2013-03-10 22:37:00,
2013-03-10 15:42:00,65.3,16.5,30.22,ENE,77,4.0,15.0,15,0.00,,---,0.00,VWS V14.01,2013-03-10 22:42:00,
2013-03-10 15:47:00,65.9,15.4,30.23,NE,50,11.0,15.0,14,0.00,,---,0.00,VWS V14.01,2013-03-10 22:47:00,
2013-03-10 15:52:00,65.9,15.4,30.23,ESE,108,4.0,15.0,14,0.00,,---,0.00,VWS V14.01,2013-03-10 22:52:00,
2013-03-10 15:57:00,65.8,16.9,30.22,NNE,30,9.0,15.0,15,0.00,,---,0.00,VWS V14.01,2013-03-10 22:57:00,
2013-03-10 16:03:00,65.5,15.1,30.22,North,1,9.0,11.0,14,0.00,,---,0.00,VWS V14.01,2013-03-10 23:03:00,
2013-03-10 16:08:00,65.9,17.0,30.22,ENE,71,8.0,11.0,15,0.00,,---,0.00,VWS V14.01,2013-03-10 23:08:00,
2013-03-10 16:13:00,66.0,15.5,30.22,NE,40,9.0,11.0,14,0.00,,---,0.00,VWS V14.01,2013-03-10 23:13:00,
2013-03-10 16:18:00,65.9,17.0,30.21,North,1,8.0,11.0,15,0.00,,---,0.00,VWS V14.01,2013-03-10 23:18:00,
2013-03-10 16:23:00,66.1,17.1,30.21,NNE,17,7.0,12.0,15,0.00,,---,0.00,VWS V14.01,2013-03-10 23:23:00,
2013-03-10 16:28:00,66.0,17.1,30.21,NW,318,5.0,14.0,15,0.00,,---,0.00,VWS V14.01,2013-03-10 23:28:00,
2013-03-10 16:33:00,65.9,17.0,30.21,NW,318,1.0,14.0,15,0.00,,---,0.00,VWS V14.01,2013-03-10 23:33:00,
2013-03-10 16:38:00,66.1,17.1,30.22,North,355,4.0,14.0,15,0.00,,---,0.00,VWS V14.01,2013-03-10 23:38:00,
2013-03-10 16:43:00,66.1,15.6,30.21,NNE,20,8.0,14.0,14,0.00,,---,0.00,VWS V14.01,2013-03-10 23:43:00,
2013-03-10 16:48:00,65.9,15.4,30.21,NNW,330,4.0,14.0,14,0.00,,---,0.00,VWS V14.01,2013-03-10 23:48:00,
2013-03-10 16:54:00,66.1,15.6,30.21,NNW,347,6.0,8.0,14,0.00,,---,0.00,VWS V14.01,2013-03-10 23:54:00,
2013-03-10 16:59:00,66.0,15.5,30.21,NE,42,5.0,11.0,14,0.00,,---,0.00,VWS V14.01,2013-03-10 23:59:00,
2013-03-10 17:04:00,66.0,15.5,30.21,NNW,333,5.0,8.0,14,0.00,,---,0.00,VWS V14.01,2013-03-11 00:04:00,
2013-03-10 17:09:00,66.2,15.6,30.20,NE,40,9.0,11.0,14,0.00,,---,0.00,VWS V14.01,2013-03-11 00:09:00,
2013-03-10 17:14:00,66.1,15.6,30.21,NE,42,7.0,11.0,14,0.00,,---,0.00,VWS V14.01,2013-03-11 00:14:00,
2013-03-10 17:20:00,65.9,15.4,30.21,NE,53,10.0,11.0,14,0.00,,---,0.00,VWS V14.01,2013-03-11 00:20:00,
2013-03-10 17:25:00,65.9,15.4,30.21,NE,44,4.0,11.0,14,0.00,,---,0.00,VWS V14.01,2013-03-11 00:25:00,
2013-03-10 17:30:00,66.1,17.1,30.21,ENE,76,4.0,11.0,15,0.00,,---,0.00,VWS V14.01,2013-03-11 00:30:00,
2013-03-10 17:35:00,66.1,17.1,30.21,NNE,26,6.0,11.0,15,0.00,,---,0.00,VWS V14.01,2013-03-11 00:35:00,
2013-03-10 17:40:00,65.8,16.9,30.21,North,1,2.0,11.0,15,0.00,,---,0.00,VWS V14.01,2013-03-11 00:40:00,
2013-03-10 17:45:00,65.8,16.9,30.21,NNW,340,0.0,11.0,15,0.00,,---,0.00,VWS V14.01,2013-03-11 00:45:00,
2013-03-10 17:50:00,65.8,16.9,30.21,NNE,20,7.0,11.0,15,0.00,,---,0.00,VWS V14.01,2013-03-11 00:50:00,
2013-03-10 17:55:00,65.7,15.2,30.21,NE,45,0.0,11.0,14,0.00,,---,0.00,VWS V14.01,2013-03-11 00:55:00,
2013-03-10 18:01:00,65.6,15.1,30.21,NE,45,6.0,7.0,14,0.00,,---,0.00,VWS V14.01,2013-03-11 01:01:00,
2013-03-10 18:06:00,65.4,16.6,30.20,NNE,32,4.0,9.0,15,0.00,,---,0.00,VWS V14.01,2013-03-11 01:06:00,
2013-03-10 18:11:00,65.4,16.6,30.20,NE,40,2.0,9.0,15,0.00,,---,0.00,VWS V14.01,2013-03-11 01:11:00,
2013-03-10 18:16:00,65.6,16.7,30.20,NE,49,4.0,9.0,15,0.00,,---,0.00,VWS V14.01,2013-03-11 01:16:00,
2013-03-10 18:21:00,65.6,16.7,30.20,North,354,3.0,9.0,15,0.00,,---,0.00,VWS V14.01,2013-03-11 01:21:00,
2013-03-10 18:26:00,65.5,15.1,30.20,NNE,33,3.0,9.0,14,0.00,,---,0.00,VWS V14.01,2013-03-11 01:26:00,
2013-03-10 18:31:00,65.2,16.4,30.20,NE,44,3.0,9.0,15,0.00,,---,0.00,VWS V14.01,2013-03-11 01:31:00,
2013-03-10 18:36:00,65.1,16.3,30.20,NNE,30,1.0,9.0,15,0.00,,---,0.00,VWS V14.01,2013-03-11 01:36:00,
2013-03-10 18:43:00,64.9,16.2,30.21,NNE,29,0.0,9.0,15,0.00,,---,0.00,VWS V14.01,2013-03-11 01:43:00,
2013-03-10 18:48:00,64.3,17.2,30.21,NNW,330,0.0,0.0,16,0.00,,---,0.00,VWS V14.01,2013-03-11 01:48:00,
2013-03-10 18:53:00,63.5,16.5,30.21,NW,317,1.0,2.0,16,0.00,,---,0.00,VWS V14.01,2013-03-11 01:53:00,
2013-03-10 18:58:00,62.9,17.5,30.20,NNW,338,1.0,2.0,17,0.00,,---,0.00,VWS V14.01,2013-03-11 01:58:00,
2013-03-10 19:03:00,62.5,17.1,30.21,NNW,338,0.0,0.0,17,0.00,,---,0.00,VWS V14.01,2013-03-11 02:03:00,
2013-03-10 19:09:00,62.0,16.7,30.20,NNW,338,0.0,0.0,17,0.00,,---,0.00,VWS V14.01,2013-03-11 02:09:00,
2013-03-10 19:14:00,61.6,17.7,30.20,NNW,338,0.0,0.0,18,0.00,,---,0.00,VWS V14.01,2013-03-11 02:14:00,
2013-03-10 19:19:00,61.1,17.3,30.20,NNW,338,0.0,0.0,18,0.00,,---,0.00,VWS V14.01,2013-03-11 02:19:00,
2013-03-10 19:24:00,60.7,18.2,30.20,WSW,239,2.0,2.0,19,0.00,,---,0.00,VWS V14.01,2013-03-11 02:24:00,
2013-03-10 19:29:00,59.8,19.8,30.21,SW,229,2.0,2.0,21,0.00,,---,0.00,VWS V14.01,2013-03-11 02:29:00,
2013-03-10 19:34:00,59.1,21.4,30.21,SW,221,2.0,3.0,23,0.00,,---,0.00,VWS V14.01,2013-03-11 02:34:00,
2013-03-10 19:39:00,58.6,21.9,30.21,SW,226,2.0,3.0,24,0.00,,---,0.00,VWS V14.01,2013-03-11 02:39:00,
2013-03-10 19:44:00,58.1,22.5,30.21,SW,225,1.0,3.0,25,0.00,,---,0.00,VWS V14.01,2013-03-11 02:44:00,
2013-03-10 19:49:00,57.4,22.8,30.21,SSW,211,1.0,3.0,26,0.00,,---,0.00,VWS V14.01,2013-03-11 02:49:00,
2013-03-10 19:54:00,56.8,22.3,30.21,SSW,212,1.0,3.0,26,0.00,,---,0.00,VWS V14.01,2013-03-11 02:54:00,
2013-03-10 19:59:00,56.4,22.0,30.21,SW,215,1.0,1.0,26,0.00,,---,0.00,VWS V14.01,2013-03-11 02:59:00,
2013-03-10 20:04:00,56.0,22.5,30.22,SSW,192,1.0,2.0,27,0.00,,---,0.00,VWS V14.01,2013-03-11 03:04:00,
2013-03-10 20:09:00,55.6,22.2,30.22,SSW,195,2.0,2.0,27,0.00,,---,0.00,VWS V14.01,2013-03-11 03:09:00,
2013-03-10 20:14:00,55.4,21.1,30.22,SSW,203,2.0,2.0,26,0.00,,---,0.00,VWS V14.01,2013-03-11 03:14:00,
2013-03-10 20:20:00,55.2,22.7,30.22,SSW,197,1.0,2.0,28,0.00,,---,0.00,VWS V14.01,2013-03-11 03:20:00,
2013-03-10 20:25:00,54.9,22.4,30.22,South,188,2.0,3.0,28,0.00,,---,0.00,VWS V14.01,2013-03-11 03:25:00,
2013-03-10 20:30:00,54.6,22.2,30.22,SSW,193,2.0,3.0,28,0.00,,---,0.00,VWS V14.01,2013-03-11 03:30:00,
2013-03-10 20:35:00,54.5,22.1,30.22,SSW,207,1.0,3.0,28,0.00,,---,0.00,VWS V14.01,2013-03-11 03:35:00,
2013-03-10 20:40:00,53.9,23.2,30.22,NW,318,0.0,5.0,30,0.00,,---,0.00,VWS V14.01,2013-03-11 03:40:00,
2013-03-10 20:45:00,52.8,24.5,30.22,WNW,283,0.0,5.0,33,0.00,,---,0.00,VWS V14.01,2013-03-11 03:45:00,
2013-03-10 20:50:00,51.8,25.0,30.22,South,191,1.0,5.0,35,0.00,,---,0.00,VWS V14.01,2013-03-11 03:50:00,
2013-03-10 20:55:00,51.4,24.7,30.22,South,190,2.0,5.0,35,0.00,,---,0.00,VWS V14.01,2013-03-11 03:55:00,
2013-03-10 21:00:00,51.1,25.1,30.21,South,187,1.0,1.0,36,0.00,,---,0.00,VWS V14.01,2013-03-11 04:00:00,
2013-03-10 21:03:00,51.0,24.3,30.22,SSE,165,1.0,2.0,35,0.00,,---,0.00,VWS V14.01,2013-03-11 04:03:00,
2013-03-10 21:07:00,51.0,24.3,30.22,South,175,2.0,2.0,35,0.00,,---,0.00,VWS V14.01,2013-03-11 04:07:00,
2013-03-10 21:12:00,51.0,24.3,30.22,SSE,160,2.0,3.0,35,0.00,,---,0.00,VWS V14.01,2013-03-11 04:12:00,
2013-03-10 21:17:00,51.1,24.4,30.22,SSE,160,1.0,3.0,35,0.00,,---,0.00,VWS V14.01,2013-03-11 04:17:00,
2013-03-10 21:22:00,51.1,23.7,30.22,SSE,167,1.0,3.0,34,0.00,,---,0.00,VWS V14.01,2013-03-11 04:22:00,
2013-03-10 21:27:00,51.0,23.6,30.23,SSE,152,1.0,3.0,34,0.00,,---,0.00,VWS V14.01,2013-03-11 04:27:00,
2013-03-10 21:32:00,51.0,25.0,30.23,SE,145,0.0,3.0,36,0.00,,---,0.00,VWS V14.01,2013-03-11 04:32:00,
2013-03-10 21:37:00,50.2,25.6,30.23,North,9,1.0,3.0,38,0.00,,---,0.00,VWS V14.01,2013-03-11 04:37:00,
2013-03-10 21:43:00,49.6,25.7,30.23,NNE,28,0.0,3.0,39,0.00,,---,0.00,VWS V14.01,2013-03-11 04:43:00,
2013-03-10 21:48:00,49.1,25.8,30.23,East,96,1.0,3.0,40,0.00,,---,0.00,VWS V14.01,2013-03-11 04:48:00,
2013-03-10 21:53:00,49.2,25.3,30.23,East,96,1.0,3.0,39,0.00,,---,0.00,VWS V14.01,2013-03-11 04:53:00,
2013-03-10 21:58:00,49.2,25.3,30.23,SE,131,1.0,3.0,39,0.00,,---,0.00,VWS V14.01,2013-03-11 04:58:00,
2013-03-10 22:03:00,49.6,23.8,30.23,SE,139,1.0,2.0,36,0.00,,---,0.00,VWS V14.01,2013-03-11 05:03:00,
2013-03-10 22:08:00,49.8,25.2,30.23,SE,139,0.0,2.0,38,0.00,,---,0.00,VWS V14.01,2013-03-11 05:08:00,
2013-03-10 22:13:00,49.3,24.8,30.24,SE,139,0.0,2.0,38,0.00,,---,0.00,VWS V14.01,2013-03-11 05:13:00,
2013-03-10 22:18:00,48.5,25.3,30.24,SE,124,0.0,2.0,40,0.00,,---,0.00,VWS V14.01,2013-03-11 05:18:00,
2013-03-10 22:23:00,47.6,26.2,30.24,SE,124,0.0,2.0,43,0.00,,---,0.00,VWS V14.01,2013-03-11 05:23:00,
2013-03-10 22:28:00,47.1,25.8,30.24,SE,128,0.0,2.0,43,0.00,,---,0.00,VWS V14.01,2013-03-11 05:28:00,
2013-03-10 22:33:00,47.4,25.5,30.24,SE,145,0.0,2.0,42,0.00,,---,0.00,VWS V14.01,2013-03-11 05:33:00,
2013-03-10 22:38:00,47.3,26.0,30.24,SE,137,0.0,2.0,43,0.00,,---,0.00,VWS V14.01,2013-03-11 05:38:00,
2013-03-10 22:43:00,47.7,25.8,30.24,SE,136,1.0,2.0,42,0.00,,---,0.00,VWS V14.01,2013-03-11 05:43:00,
2013-03-10 22:48:00,47.8,26.4,30.24,SE,136,0.0,2.0,43,0.00,,---,0.00,VWS V14.01,2013-03-11 05:48:00,
2013-03-10 22:54:00,47.5,26.7,30.24,SE,139,0.0,2.0,44,0.00,,---,0.00,VWS V14.01,2013-03-11 05:54:00,
2013-03-10 22:59:00,47.3,26.0,30.24,SE,141,2.0,2.0,43,0.00,,---,0.00,VWS V14.01,2013-03-11 05:59:00,
2013-03-10 23:04:00,47.4,25.5,30.24,SE,142,0.0,2.0,42,0.00,,---,0.00,VWS V14.01,2013-03-11 06:04:00,
2013-03-10 23:09:00,47.6,25.1,30.24,SE,142,0.0,2.0,41,0.00,,---,0.00,VWS V14.01,2013-03-11 06:09:00,
2013-03-10 23:14:00,47.7,24.0,30.24,SE,138,2.0,2.0,39,0.00,,---,0.00,VWS V14.01,2013-03-11 06:14:00,
2013-03-10 23:19:00,48.4,24.6,30.24,SE,131,1.0,2.0,39,0.00,,---,0.00,VWS V14.01,2013-03-11 06:19:00,
2013-03-10 23:24:00,49.1,24.0,30.24,SE,129,1.0,2.0,37,0.00,,---,0.00,VWS V14.01,2013-03-11 06:24:00,
2013-03-10 23:29:00,48.5,25.3,30.24,SE,129,0.0,2.0,40,0.00,,---,0.00,VWS V14.01,2013-03-11 06:29:00,
2013-03-10 23:34:00,48.1,24.9,30.23,SE,128,0.0,2.0,40,0.00,,---,0.00,VWS V14.01,2013-03-11 06:34:00,
2013-03-10 23:39:00,47.3,24.8,30.24,SE,127,0.0,2.0,41,0.00,,---,0.00,VWS V14.01,2013-03-11 06:39:00,
2013-03-10 23:44:00,47.1,24.6,30.24,SE,127,0.0,2.0,41,0.00,,---,0.00,VWS V14.01,2013-03-11 06:44:00,
2013-03-10 23:49:00,46.7,24.8,30.24,SSE,165,0.0,2.0,42,0.00,,---,0.00,VWS V14.01,2013-03-11 06:49:00,
2013-03-10 23:54:00,45.8,26.2,30.23,South,181,2.0,3.0,46,0.00,,---,0.00,VWS V14.01,2013-03-11 06:54:00,
2013-03-10 23:59:00,45.7,25.0,30.23,SSE,158,2.0,3.0,44,0.00,,---,0.00,VWS V14.01,2013-03-11 06:59:00,